Regional Weather Roundup
Issued by NWS Charleston, SC

Current Version | Previous Version | Graphics & Text | Print | Product List | Glossary On
Versions: 1 2 3 4 5 6 7 8 9 10 11 12 13 14 15 16 17 18 19 20 21 22 23 24 25 26 27 28 29 30 31 32 33 34 35 36 37 38 39 40 41 42 43 44 45 46 47 48 49 50
000 ASUS42 KCHS 281212 RWRCHS REGIONAL WEATHER ROUNDUP NATIONAL WEATHER SERVICE CHARLESTON SC 800 AM EDT FRI AUG 28 2015 NOTE: "FAIR" INDICATES FEW OR NO CLOUDS BELOW 12,000 FEET WITH NO SIGNIFICANT WEATHER AND/OR OBSTRUCTIONS TO VISIBILITY. NOT ALL STATIONS ARE QUALITY CONTROLLED BY THE NATIONAL WEATHER SERVICE. USE DATA WITH CAUTION...ESPECIALLY DEWPOINT OBSERVATIONS. SCZ027-030-031-034>040-042>050-281300- ...SOUTHEAST SOUTH CAROLINA... CITY SKY/WX TMP DP RH WIND PRES REMARKS N CHARLESTON PTSUNNY 71 68 90 NE7 30.09R 6HR MIN TEMP: 71; 6HR MAX TEMP: 74; WATERFRONT PRK N/A 73 72 96 N8 30.05R MOUNT PLEASANT CLOUDY 72 72 100 N6 30.08R FOG JOHNS ISLAND CLOUDY 73 72 94 N7 30.08R FOG PINOPOLIS N/A 73 68 83 E9 30.02R MONCKS CORNER FAIR 72 66 83 NE3 30.10R SUMMERVILLE FAIR 72 70 94 N3 30.10R BEAUFORT MCAS CLOUDY 73 71 93 NE9 30.08R FOG 6HR MIN TEMP: 73; 6HR MAX TEMP: 74; BEAUFORT ARPT CLOUDY 73 73 100 N9 30.08R FOG HILTON HEAD IS CLOUDY 75 75 100 N8 30.08R WALTERBORO CLOUDY 73 70 88 N6 30.10R FOG ALLENDALE CLOUDY 72 70 94 CALM 30.09R ...SOUTHERN MIDLANDS AND PEE DEE... CITY SKY/WX TMP DP RH WIND PRES REMARKS GEORGETOWN NOT AVBL KINGSTREE NOT AVBL ORANGEBURG MOSUNNY 69 64 84 NE6 30.11R 6HR MIN TEMP: 68; 6HR MAX TEMP: 73; BARNWELL CLOUDY 72 70 94 NE7 30.11R FOG AIKEN CLOUDY 64 64 100 NE8 30.15R MANNING FAIR 66 63 88 N6 30.11R COLUMBIA PTSUNNY 72 62 71 E8 30.12R 6HR MIN TEMP: 71; 6HR MAX TEMP: 74; SUMTER MOSUNNY 69 64 84 NE9 30.11R 6HR MIN TEMP: 66; 6HR MAX TEMP: 69; FLORENCE SUNNY 69 64 84 NE8 30.12R 6HR MIN TEMP: 67; 6HR MAX TEMP: 70; MYRTLE BEACH SUNNY 70 63 78 N8 30.11 N MYRTLE BEACH MOSUNNY 70 66 87 N9 30.09R 6HR MIN TEMP: 69; 6HR MAX TEMP: 71; $$ GAZ063-065-086>088-099>101-113>116-118-119-134>141-150-281300- ...SOUTHEAST GEORGIA... CITY SKY/WX TMP DP RH WIND PRES REMARKS SAVANNAH ARPT FOG 73 72 96 NE7 30.07R VSB 1/2 6HR MIN TEMP: 73; 6HR MAX TEMP: 75; HUNTER AAF CLOUDY 75 75 100 N5 30.04R FOG 6HR MIN TEMP: 74; 6HR MAX TEMP: 76; FORT STEWART CLOUDY 74 72 95 NE6 30.04R FOG 6HR MIN TEMP: 73; 6HR MAX TEMP: 74; STATESBORO CLOUDY 73 32 22 NE5 30.08R SYLVANIA CLOUDY 73 73 100 E5 30.10R FOG CLAXTON NOT AVBL ...CSRA...CENTRAL AND FAR SOUTHEAST GEORGIA... CITY SKY/WX TMP DP RH WIND PRES REMARKS THOMSON CLOUDY 73 71 96 NE8 30.16R AUGUSTA-BUSH MOSUNNY 71 68 90 NE5 30.10R 6HR MIN TEMP: 69; 6HR MAX TEMP: 73; AUGUSTA-DANIEL MOSUNNY 71 67 87 N7 30.12R SWAINSBORO CLOUDY N/A N/A N/A E7 30.09R VIDALIA CLOUDY 72 70 94 NE7 30.08R FOG EASTMAN PTSUNNY 73 73 100 E5 30.09R HAZLEHURST CLOUDY 75 75 100 NE7 30.05R ALMA MOSUNNY 74 72 93 VRB6 30.04R 6HR MIN TEMP: 73; 6HR MAX TEMP: 74; WAYCROSS MOSUNNY 77 77 100 E5 30.04R JESUP CLOUDY 77 75 94 NE5 30.05R FOG BAXLEY CLOUDY 75 73 94 E7 30.05R FOG BRUNSWICK MOSUNNY 75 73 94 CALM 30.04R SAINT SIMONS MOSUNNY 81 75 82 E8 30.02R 6HR MIN TEMP: 79; 6HR MAX TEMP: 81; $$ SCZ027-028-034-036>038-045-046-048>050-GAZ119-141-281300- ...LAKE AND SUPPLEMENTAL COASTAL OBSERVATIONS... STATION/POSITION TIME TEMP WIND PRES WAVE SWELL AIR SEA DIR/SP/G HT/PER HT/PER/DIR (UTC) (F) (DEG/KT/KT) (MB) (FT/S) (FT/S/D) UPR LAKE MARION NOT AVBL WINYAH BAY NOT AVBL LAKE MURRAY 1100 69 20/ 2/ 4 1019.0R ACE BASIN NERRS NOT AVBL FORT PULASKI 1100 77 85 10/ 8/ 10 1017.5R SAPELO ISLAND 1100 75 100/ 4 1016.0S $$ ANZ835-935-AMZ111-154-330-350-352-354-370-450-454-472-281300- ...C-MAN AND BUOY OBSERVATIONS... STATION/POSITION TIME TEMP WIND PRES WAVE SWELL AIR SEA DIR/SP/G HT/PER HT/PER/DIR (UTC) (F) (DEG/KT/KT) (MB) (FT/S) (FT/S/D) BUOY 41004 1150 81 84 30/ 8/ 10 1017.2R 3/ 9 3/ 9 BUOY 41008 1150 83 85 100/ 10/ 12 1017.0R 2/ 9 2/120/ 9 FOLLY BEACH CMAN 1100 74 360/ 6/ 8 1018.0R CAPERS NEARSHORE NOT AVBL FRIPP NEARSHORE NOT AVBL STATION/POSITION TIME TEMP WIND PRES WAVE SWELL AIR SEA DIR/SP/G HT/PER HT/PER/DIR (UTC) (F) (DEG/KT/KT) (MB) (FT/S) (FT/S/D) 5E ST. MARYS GA 1121 86 N/A 2/ 9 FRYING PAN BUOY 1150 80 81 60/ 12/ 16 1018.2R BUOY 41025 1150 78 82 40/ 19/ 23 1018.0R 5/ 6 2/120/10 CAPE LOOKOUT NC 1100 77 40/ 19/ 22 1018.2R BUOY 41002 1150 81 84 180/ 6/ 8 1017.4R 3/ 8 3/140/ 8 BUOY 41010 1120 82 85 230/ 6/ 6 1016.4R ST AUGUSTINE FL 1200 81 85 230/ 2/ 2 1017.5R $$

USA.gov is the U.S. government's official web portal to all federal, state and local government web resources and services.